User: anonymous   Login
Location: Mentone
(34.5413°N, 85.5351°W)
Time: 22:32:44
(UTC-05:00)
Language:

Cosmos 2026 Rocket - Orbit

View from above orbital plane
View from above orbital plane
View from above satellite
View from above satellite

Ground track
Ground track

The orbit data is extracted from the following two-line orbital elements,

1 20046U 89042B   15212.24197019  .00000099  00000-0  83346-4 0  9995
2 20046 082.9375 095.1066 0041622 192.9601 284.7383 13.78019629314647
Epoch (UTC): 31 July 2015 05:48:26
Eccentricity: 0.0041622
inclination: 82.9375°
perigee height: 940 km
apogee height: 1001 km
right ascension of ascending node: 95.1066°
argument of perigee: 192.9601°
revolutions per day: 13.78019629
mean anomaly at epoch: 284.7383°
orbit number at epoch: 31464

The dashed part of the orbit path shows where the satellite is in the earth's shadow,  

DLR